Time,TemperatureF,DewpointF,PressureIn,WindDirection,WindDirectionDegrees,WindSpeedMPH,WindSpeedGustMPH,Humidity,HourlyPrecipIn,Conditions,Clouds,dailyrainin,SoftwareType,DateUTC
2015-04-18 00:01:00,58.0,34.0,-100.00,NNE,20,6.0,16.0,41,-99.99,,,-99.99,,2015-04-18 07:01:00,
2015-04-18 00:21:00,57.0,34.0,-100.00,NNE,15,4.0,16.0,42,-99.99,,,-99.99,,2015-04-18 07:21:00,
2015-04-18 01:01:00,56.0,35.0,-100.00,NW,305,4.0,13.0,44,-99.99,,,-99.99,,2015-04-18 08:01:00,
2015-04-18 01:11:00,51.0,33.0,-100.00,North,0,1.0,5.0,50,-99.99,,,-99.99,,2015-04-18 08:11:00,
2015-04-18 01:21:00,51.0,33.0,-100.00,North,0,1.0,5.0,50,-99.99,,,-99.99,,2015-04-18 08:21:00,
2015-04-18 01:41:00,52.0,35.0,-100.00,NNW,340,2.0,10.0,52,-99.99,,,-99.99,,2015-04-18 08:41:00,
2015-04-18 02:01:00,51.0,35.0,-100.00,NW,315,3.0,8.0,54,-99.99,,,-99.99,,2015-04-18 09:01:00,
2015-04-18 02:11:00,50.0,35.0,-100.00,NE,40,2.0,6.0,56,-99.99,,,-99.99,,2015-04-18 09:11:00,
2015-04-18 02:31:00,49.0,35.0,-100.00,North,0,2.0,7.0,59,-99.99,,,-99.99,,2015-04-18 09:31:00,
2015-04-18 03:01:00,48.0,36.0,-100.00,NNE,30,3.0,6.0,62,-99.99,,,-99.99,,2015-04-18 10:01:00,
2015-04-18 03:21:00,48.0,36.0,-100.00,NE,35,3.0,6.0,64,-99.99,,,-99.99,,2015-04-18 10:21:00,
2015-04-18 04:01:00,47.0,36.0,-100.00,NNE,20,2.0,4.0,65,-99.99,,,-99.99,,2015-04-18 11:01:00,
2015-04-18 04:21:00,46.0,36.0,-100.00,North,5,3.0,6.0,67,-99.99,,,-99.99,,2015-04-18 11:21:00,
2015-04-18 04:42:00,45.0,35.0,-100.00,SSE,155,1.0,3.0,70,-99.99,,,-99.99,,2015-04-18 11:42:00,
2015-04-18 04:51:00,45.0,35.0,-100.00,SSE,155,1.0,3.0,70,-99.99,,,-99.99,,2015-04-18 11:51:00,
2015-04-18 05:01:00,44.0,35.0,-100.00,East,90,2.0,2.0,70,-99.99,,,-99.99,,2015-04-18 12:01:00,
2015-04-18 05:21:00,44.0,35.0,-100.00,ENE,60,1.0,2.0,72,-99.99,,,-99.99,,2015-04-18 12:21:00,
2015-04-18 05:41:00,43.0,35.0,-100.00,East,95,1.0,3.0,74,-99.99,,,-99.99,,2015-04-18 12:41:00,
2015-04-18 06:01:00,43.0,36.0,-100.00,ENE,65,2.0,4.0,75,-99.99,,,-99.99,,2015-04-18 13:01:00,
2015-04-18 06:11:00,43.0,36.0,-100.00,SE,125,1.0,2.0,76,-99.99,,,-99.99,,2015-04-18 13:11:00,
2015-04-18 06:31:00,43.0,36.0,-100.00,NE,40,2.0,4.0,76,-99.99,,,-99.99,,2015-04-18 13:31:00,
2015-04-18 07:01:00,44.0,37.0,-100.00,NE,50,1.0,4.0,76,-99.99,,,-99.99,,2015-04-18 14:01:00,
2015-04-18 07:21:00,43.0,36.0,-100.00,NE,45,2.0,4.0,76,-99.99,,,-99.99,,2015-04-18 14:21:00,
2015-04-18 07:41:00,44.0,37.0,-100.00,East,90,2.0,3.0,77,-99.99,,,-99.99,,2015-04-18 14:41:00,
2015-04-18 08:01:00,43.0,37.0,-100.00,East,85,2.0,3.0,79,-99.99,,,-99.99,,2015-04-18 15:01:00,
2015-04-18 08:21:00,44.0,38.0,-100.00,North,-9999,0.0,2.0,79,-99.99,,,-99.99,,2015-04-18 15:21:00,
2015-04-18 08:41:00,47.0,39.0,-100.00,North,-9999,0.0,2.0,75,-99.99,,,-99.99,,2015-04-18 15:41:00,
2015-04-18 08:51:00,47.0,39.0,-100.00,North,-9999,0.0,2.0,75,-99.99,,,-99.99,,2015-04-18 15:51:00,
2015-04-18 09:01:00,49.0,40.0,-100.00,SSE,160,2.0,4.0,71,-99.99,,,-99.99,,2015-04-18 16:01:00,
2015-04-18 09:41:00,60.0,41.0,-100.00,WSW,245,4.0,7.0,49,-99.99,,,-99.99,,2015-04-18 16:41:00,
2015-04-18 09:51:00,60.0,41.0,-100.00,WSW,245,4.0,7.0,49,-99.99,,,-99.99,,2015-04-18 16:51:00,
2015-04-18 10:01:00,60.0,40.0,-100.00,WNW,285,4.0,9.0,47,-99.99,,,-99.99,,2015-04-18 17:01:00,
2015-04-18 11:22:00,66.0,39.0,-100.00,WNW,300,2.0,6.0,38,-99.99,,,-99.99,,2015-04-18 18:22:00,
2015-04-18 12:02:00,69.0,38.0,-100.00,SSE,155,4.0,9.0,33,-99.99,,,-99.99,,2015-04-18 19:02:00,
2015-04-18 12:21:00,69.0,38.0,-100.00,SW,220,5.0,11.0,32,-99.99,,,-99.99,,2015-04-18 19:21:00,
2015-04-18 12:31:00,69.0,38.0,-100.00,SW,220,5.0,11.0,32,-99.99,,,-99.99,,2015-04-18 19:31:00,
2015-04-18 12:42:00,70.0,35.0,-100.00,SSW,195,4.0,13.0,28,-99.99,,,-99.99,,2015-04-18 19:42:00,
2015-04-18 12:51:00,70.0,35.0,-100.00,SSW,195,4.0,13.0,28,-99.99,,,-99.99,,2015-04-18 19:51:00,
2015-04-18 13:01:00,71.0,36.0,-100.00,South,175,4.0,14.0,28,-99.99,,,-99.99,,2015-04-18 20:01:00,
2015-04-18 13:21:00,71.0,36.0,-100.00,South,185,2.0,14.0,28,-99.99,,,-99.99,,2015-04-18 20:21:00,
2015-04-18 13:41:00,72.0,35.0,-100.00,South,190,9.0,19.0,26,-99.99,,,-99.99,,2015-04-18 20:41:00,
2015-04-18 13:51:00,72.0,35.0,-100.00,South,190,9.0,19.0,26,-99.99,,,-99.99,,2015-04-18 20:51:00,
2015-04-18 14:01:00,72.0,36.0,-100.00,ENE,70,2.0,13.0,26,-99.99,,,-99.99,,2015-04-18 21:01:00,
2015-04-18 14:11:00,74.0,36.0,-100.00,ENE,60,2.0,9.0,25,-99.99,,,-99.99,,2015-04-18 21:11:00,
2015-04-18 14:31:00,74.0,36.0,-100.00,East,100,3.0,12.0,25,-99.99,,,-99.99,,2015-04-18 21:31:00,
2015-04-18 14:41:00,73.0,35.0,-100.00,East,90,4.0,13.0,25,-99.99,,,-99.99,,2015-04-18 21:41:00,
2015-04-18 14:51:00,73.0,35.0,-100.00,East,90,4.0,13.0,25,-99.99,,,-99.99,,2015-04-18 21:51:00,
2015-04-18 15:01:00,74.0,36.0,-100.00,ESE,110,2.0,12.0,25,-99.99,,,-99.99,,2015-04-18 22:01:00,
2015-04-18 15:21:00,74.0,36.0,-100.00,North,0,2.0,16.0,25,-99.99,,,-99.99,,2015-04-18 22:21:00,
2015-04-18 15:41:00,75.0,36.0,-100.00,SW,215,3.0,15.0,24,-99.99,,,-99.99,,2015-04-18 22:41:00,
2015-04-18 15:51:00,75.0,36.0,-100.00,SW,215,3.0,15.0,24,-99.99,,,-99.99,,2015-04-18 22:51:00,
2015-04-18 16:01:00,73.0,34.0,-100.00,SE,125,4.0,20.0,24,-99.99,,,-99.99,,2015-04-18 23:01:00,
2015-04-18 16:11:00,73.0,34.0,-100.00,SE,125,4.0,20.0,24,-99.99,,,-99.99,,2015-04-18 23:11:00,
2015-04-18 16:31:00,75.0,34.0,-100.00,NE,35,3.0,12.0,22,-99.99,,,-99.99,,2015-04-18 23:31:00,
2015-04-18 16:42:00,76.0,34.0,-100.00,NNE,25,4.0,12.0,22,-99.99,,,-99.99,,2015-04-18 23:42:00,
2015-04-18 17:01:00,76.0,35.0,-100.00,NE,35,2.0,16.0,22,-99.99,,,-99.99,,2015-04-19 00:01:00,
2015-04-18 17:11:00,75.0,34.0,-100.00,East,95,6.0,15.0,22,-99.99,,,-99.99,,2015-04-19 00:11:00,
2015-04-18 17:31:00,75.0,34.0,-100.00,WNW,300,2.0,12.0,22,-99.99,,,-99.99,,2015-04-19 00:31:00,
2015-04-18 17:41:00,74.0,35.0,-100.00,North,0,7.0,11.0,24,-99.99,,,-99.99,,2015-04-19 00:41:00,
2015-04-18 18:01:00,75.0,36.0,-100.00,NE,35,2.0,9.0,24,-99.99,,,-99.99,,2015-04-19 01:01:00,
2015-04-18 18:21:00,74.0,36.0,-100.00,NNE,25,4.0,12.0,25,-99.99,,,-99.99,,2015-04-19 01:21:00,
2015-04-18 18:41:00,73.0,35.0,-100.00,NNE,20,4.0,11.0,25,-99.99,,,-99.99,,2015-04-19 01:41:00,
2015-04-18 18:51:00,73.0,35.0,-100.00,NNE,20,4.0,11.0,25,-99.99,,,-99.99,,2015-04-19 01:51:00,
2015-04-18 19:01:00,72.0,35.0,-100.00,North,0,3.0,10.0,26,-99.99,,,-99.99,,2015-04-19 02:01:00,
2015-04-18 19:21:00,70.0,36.0,-100.00,NNE,25,7.0,13.0,28,-99.99,,,-99.99,,2015-04-19 02:21:00,
2015-04-18 19:41:00,68.0,36.0,-100.00,NNE,30,7.0,11.0,31,-99.99,,,-99.99,,2015-04-19 02:41:00,
2015-04-18 19:51:00,68.0,36.0,-100.00,NNE,30,7.0,11.0,31,-99.99,,,-99.99,,2015-04-19 02:51:00,
2015-04-18 20:01:00,68.0,37.0,-100.00,NNE,25,6.0,14.0,32,-99.99,,,-99.99,,2015-04-19 03:01:00,
2015-04-18 20:21:00,67.0,37.0,-100.00,North,0,6.0,13.0,33,-99.99,,,-99.99,,2015-04-19 03:21:00,
2015-04-18 20:41:00,66.0,36.0,-100.00,NNE,20,6.0,12.0,33,-99.99,,,-99.99,,2015-04-19 03:41:00,
2015-04-18 20:51:00,66.0,36.0,-100.00,NNE,20,6.0,12.0,33,-99.99,,,-99.99,,2015-04-19 03:51:00,
2015-04-18 21:01:00,66.0,36.0,-100.00,NE,45,5.0,12.0,33,-99.99,,,-99.99,,2015-04-19 04:01:00,
2015-04-18 21:21:00,65.0,36.0,-100.00,North,0,3.0,11.0,35,-99.99,,,-99.99,,2015-04-19 04:21:00,
2015-04-18 22:01:00,56.0,36.0,-100.00,NW,315,2.0,6.0,47,-99.99,,,-99.99,,2015-04-19 05:01:00,
2015-04-18 22:11:00,54.0,36.0,-100.00,SE,125,1.0,2.0,49,-99.99,,,-99.99,,2015-04-19 05:11:00,
2015-04-18 22:31:00,53.0,36.0,-100.00,ENE,75,2.0,6.0,51,-99.99,,,-99.99,,2015-04-19 05:31:00,
2015-04-18 22:41:00,52.0,35.0,-100.00,NE,45,3.0,4.0,52,-99.99,,,-99.99,,2015-04-19 05:41:00,
2015-04-18 22:51:00,52.0,35.0,-100.00,NE,45,3.0,4.0,52,-99.99,,,-99.99,,2015-04-19 05:51:00,